Regional Weather Roundup
Issued by NWS Newport/Morehead, NC

Current Version | Previous Version | Graphics & Text | Print | Product List | Glossary Off
Versions: 1 2 3 4 5 6 7 8 9 10 11 12 13 14 15 16 17 18 19 20 21 22 23 24 25 26 27 28 29 30 31 32 33 34 35 36 37 38 39 40 41 42 43 44 45 46 47 48 49 50

000
ASUS42 KMHX 122122
RWRMHX
WEATHER ROUNDUP FOR EASTERN NORTH CAROLINA
NATIONAL WEATHER SERVICE NEWPORT/MOREHEAD CITY NC
500 PM EDT SAT JUL 12 2014

NOTE: "FAIR" INDICATES FEW OR NO CLOUDS BELOW 12,000 FEET
WITH NO SIGNIFICANT WEATHER AND/OR OBSTRUCTIONS TO VISIBILITY

NCZ015>017-031-032-045>047-102-103-122200-
NORTH COAST

CITY           SKY/WX    TMP DP  RH WIND       PRES   REMARKS
EDENTON        SUNNY     82  71  68 SE6       30.19S
ELIZABETH CITY MOSUNNY   82  69  64 E5        30.19F
KITTY HAWK     CLEAR     78  69  73 E3        30.19S
MANTEO         NOT AVBL

$$

NCZ045>047-081-094-103-104-122200-
CENTRAL COAST

CITY           SKY/WX    TMP DP  RH WIND       PRES   REMARKS
FRISCO         SUNNY     83  69  62 VRB7      30.19S
SWANQUARTER      N/A     84 N/A N/A SE3G9     30.15S

$$

NCZ095-097-098-100-101-122200-
SOUTHERN COAST

CITY           SKY/WX    TMP DP  RH WIND       PRES   REMARKS
BEAUFORT       SUNNY     83  72  69 SE8       30.17F
CEDAR ISLAND     N/A     81 N/A N/A E6        30.21S
JACKSONVILLE   SUNNY     85  71  63 SE8       30.16F
NEWPORT        NOT AVBL
PINEY ISLAND   CLEAR     84  73  69 E8        30.17F
WILMINGTON     MOSUNNY   86  73  65 SE10      30.16F


$$

NCZ011>013-027>030-043-044-078>080-089-090>093-098-122200-
COASTAL PLAIN

CITY           SKY/WX    TMP DP  RH WIND       PRES   REMARKS
AHOSKIE        SUNNY     85  68  56 SE5       30.18F
CLINTON        SUNNY     88  71  57 N3        30.16S
ELIZABETHTOWN  MOSUNNY   87  71  58 S3        30.15S
GOLDSBORO      NOT AVBL
GREENVILLE     MOSUNNY   88  66  48 NE5       30.18F
HAVELOCK       LGT RAIN  81  74  79 E8        30.18S
KENANSVILLE    SUNNY     86  68  53 E3        30.17S
KINSTON        MOSUNNY   90  66  45 CALM      30.17F
NEW BERN       SUNNY     88  71  57 E9        30.17F
RICHLANDS      CLOUDY    86  72  62 E9        30.16S
ROANOKE RAPIDS NOT AVBL
ROCKY MOUNT    SUNNY     88  67  49 CALM      30.18F
WASHINGTON     SUNNY     85  67  54 NE3       30.18S
WHITEVILLE     MOSUNNY   87  71  58 S6        30.15F

$$

AMZ130-135-150-152-154-156-158-170-250-252-270-ANZ085-086-088-633-658-670-122200-
MARINE OBSERVATIONS

STATION/POSITION TIME  TEMP    WIND        PRES    WAVE   SWELL
                       AIR SEA DIR/SP/G            HT/PER HT/PER
                 (UTC) (F)     (DEG/KT/KT) (MB)    (FT/S) (FT/S)
CHESAPEAKE LIGHT NOT AVBL
BUOY 44014       2100   75 78   90/  6/  8 1022.5    2/ 8   2/ 8
DUCK             2100   79 75  100/  6/  7 1022.0
2E DUCK          2100                        N/A     2/ 6
OREGON INLET     2100   77 77   50/  5/  7 1022.5
BUOY 44095       2100      76                N/A     2/ 7
HATTERAS CG      2100   79 83   10/  7/ 10 1022.5
DIAMOND BUOY     2100          VRB  2/  6  1021.9    2/ 7   2/ 7
17S OCRACOKE INL NOT AVBL
CAPE LOOKOUT     2100   79      90/  8/  9 1021.7
BEAUFORT LAB     2100   81 83  120/  7/ 12 1021.3
30 SE NEW RIVER  2100   81 85  130/  2/  4 1022.3    2/ 7   2/ 7
5 SE WRIGHTSVILL 2100   78 83  190/  6/  6 1022.2
FRYING PAN BUOY  NOT AVBL
BUOY 41001       NOT AVBL
BUOY 41002       2047   80 85  160/  4/  8 1022.5    3/ 7   2/ 7
BUOY 41004       2100   78 82  210/  4/  6 1020.7    2/ 7   2/ 7

$$



USA.gov is the U.S. government's official web portal to all federal, state and local government web resources and services.